Weather History for Pinedale, WY

Change the Weather History Date:

Wednesday, March 6, 2013

  Actual Average (KBPI) Record (KBPI)
Temperature  
Mean Temperature 27 °F 23 °F  
Max Temperature 42 °F 37 °F 49 °F (2007)
Min Temperature 12 °F 9 °F -11 °F (1997)
Degree Days  
Heating Degree Days 38 42  
Month to date heating degree days 261  
Since 1 July heating degree days 7784  
Cooling Degree Days 0 0  
Month to date cooling degree days 0  
Year to date cooling degree days 0  
Moisture  
Dew Point 18 °F    
Average Humidity 70    
Maximum Humidity 100    
Minimum Humidity 39    
Precipitation  
Precipitation 0.00 in 0.01 in 0.10 in (1991)
Month to date precipitation 0.06  
Year to date precipitation 0.72  
Sea Level Pressure  
Sea Level Pressure 29.91 in    
Wind  
Wind Speed 8 mph (WSW)    
Max Wind Speed 23 mph    
Max Gust Speed 32 mph    
Visibility 10 miles    
Events Snow    
T = Trace of Precipitation, MM = Missing Value Source: NWS Daily Summary

Daily Weather History Graph

Daily Weather History Graph

Search for Another Location

Airport:

Trip Planner

Search our weather history database for the weather conditions in past years. The results will help you decide how hot, cold, wet, or windy it might be!

Date:

Astronomy

Mar. 06, 2013 Rise Set
Actual Time 6:46 AM MST 6:15 PM MST
Civil Twilight 6:17 AM MST 6:43 PM MST
Nautical Twilight 5:45 AM MST 7:16 PM MST
Astronomical Twilight 5:12 AM MST 7:49 PM MST
Moon 3:04 AM MST (3/6) 12:55 PM MST (3/6)
Length of Visible Light 12h 25m
Length of Day
11h 29m
Waning Crescent, 29% of the Moon is Illuminated
Mar 6
Waning Crescent
Mar 11
New
Mar 19
First Quarter
Mar 27
Full
Apr 2
Last Quarter

Hourly Weather History & Observations

Time (MST) Temp. Windchill Dew Point Humidity Pressure Visibility Wind Dir Wind Speed Gust Speed Precip Events Conditions
12:15 AM 14.0 °F 2.9 °F 8.6 °F 79% 30.06 in 10.0 mi WNW 8.1 mph - N/A   Scattered Clouds
12:35 AM 12.2 °F -0.2 °F 6.8 °F 79% 30.05 in 10.0 mi NW 9.2 mph - N/A   Clear
12:55 AM 12.2 °F 1.7 °F 6.8 °F 79% 30.05 in 10.0 mi WNW 6.9 mph - N/A   Clear
1:15 AM 12.2 °F 1.7 °F 8.6 °F 85% 30.05 in 10.0 mi West 6.9 mph - N/A   Clear
1:35 AM 12.2 °F 1.7 °F 6.8 °F 79% 30.05 in 10.0 mi WNW 6.9 mph - N/A   Clear
1:55 AM 12.2 °F 0.7 °F 6.8 °F 79% 30.03 in 10.0 mi NW 8.1 mph - N/A   Clear
2:15 AM 12.2 °F 1.7 °F 6.8 °F 79% 30.03 in 10.0 mi WNW 6.9 mph - N/A   Clear
2:35 AM 12.2 °F 2.9 °F 6.8 °F 79% 30.03 in 10.0 mi WNW 5.8 mph - N/A   Scattered Clouds
2:55 AM 12.2 °F 1.7 °F 5.0 °F 73% 30.01 in 10.0 mi NW 6.9 mph - N/A   Mostly Cloudy
3:15 AM 12.2 °F 2.9 °F 5.0 °F 73% 30.01 in 10.0 mi WNW 5.8 mph - N/A   Mostly Cloudy
3:35 AM 12.2 °F 4.3 °F 8.6 °F 85% 30.00 in 10.0 mi West 4.6 mph - N/A   Scattered Clouds
3:55 AM 12.2 °F 1.7 °F 8.6 °F 85% 30.00 in 10.0 mi West 6.9 mph - N/A   Mostly Cloudy
4:15 AM 14.0 °F 5.1 °F 8.6 °F 79% 29.99 in 10.0 mi WNW 5.8 mph - N/A   Overcast
4:35 AM 14.0 °F 3.9 °F 8.6 °F 79% 30.00 in 10.0 mi WNW 6.9 mph - N/A   Overcast
4:55 AM 14.0 °F 5.1 °F 8.6 °F 79% 29.99 in 10.0 mi WNW 5.8 mph - N/A   Scattered Clouds
5:15 AM 14.0 °F 8.2 °F 8.6 °F 79% 30.00 in 10.0 mi West 3.5 mph - N/A   Scattered Clouds
5:35 AM 14.0 °F 8.2 °F 8.6 °F 79% 30.00 in 10.0 mi NW 3.5 mph - N/A   Scattered Clouds
5:55 AM 14.0 °F 5.1 °F 8.6 °F 79% 30.00 in 10.0 mi WNW 5.8 mph - N/A   Mostly Cloudy
6:15 AM 14.0 °F 3.9 °F 6.8 °F 73% 30.00 in 10.0 mi WNW 6.9 mph - N/A   Overcast
6:35 AM 12.2 °F 2.9 °F 6.8 °F 79% 29.98 in 10.0 mi WNW 5.8 mph - N/A   Scattered Clouds
6:55 AM 12.2 °F 4.3 °F 8.6 °F 85% 29.97 in 10.0 mi West 4.6 mph - N/A   Scattered Clouds
7:15 AM 12.2 °F 2.9 °F 8.6 °F 85% 29.97 in 10.0 mi WNW 5.8 mph - N/A   Scattered Clouds
7:35 AM 14.0 °F 6.5 °F 8.6 °F 79% 29.97 in 10.0 mi WNW 4.6 mph - N/A   Mostly Cloudy
7:55 AM 15.8 °F 10.2 °F 8.6 °F 73% 29.97 in 10.0 mi WNW 3.5 mph - N/A   Mostly Cloudy
8:15 AM 17.6 °F 10.7 °F 10.4 °F 73% 29.96 in 10.0 mi WNW 4.6 mph - N/A   Scattered Clouds
8:35 AM 19.4 °F 12.8 °F 10.4 °F 68% 29.95 in 10.0 mi NW 4.6 mph - N/A   Scattered Clouds
8:55 AM 21.2 °F 14.9 °F 12.2 °F 68% 29.95 in 10.0 mi NW 4.6 mph - N/A   Clear
9:15 AM 24.8 °F 20.5 °F 12.2 °F 59% 29.95 in 10.0 mi NW 3.5 mph - N/A   Clear
9:35 AM 28.4 °F - 12.2 °F 51% 29.94 in 10.0 mi Calm Calm - N/A   Mostly Cloudy
9:55 AM 30.2 °F - 14.0 °F 51% 29.93 in 10.0 mi Calm Calm - N/A   Mostly Cloudy
10:15 AM 32.0 °F 27.5 °F 14.0 °F 48% 29.92 in 10.0 mi East 4.6 mph - N/A   Scattered Clouds
10:35 AM 32.0 °F 27.5 °F 17.6 °F 55% 29.91 in 10.0 mi East 4.6 mph - N/A   Mostly Cloudy
10:55 AM 32.0 °F 27.5 °F 17.6 °F 55% 29.91 in 10.0 mi ESE 4.6 mph - N/A   Mostly Cloudy
11:15 AM 35.6 °F 30.7 °F 19.4 °F 52% 29.90 in 10.0 mi ESE 5.8 mph - N/A   Overcast
11:35 AM 37.4 °F 30.8 °F 19.4 °F 48% 29.90 in 10.0 mi SE 9.2 mph - N/A   Overcast
11:55 AM 37.4 °F 30.8 °F 21.2 °F 52% 29.87 in 10.0 mi ESE 9.2 mph - N/A   Mostly Cloudy
12:15 PM 37.4 °F 29.3 °F 19.4 °F 48% 29.87 in 10.0 mi ESE 12.7 mph - N/A   Mostly Cloudy
12:35 PM 39.2 °F 32.0 °F 21.2 °F 49% 29.85 in 10.0 mi SSE 11.5 mph 16.1 mph N/A   Mostly Cloudy
12:55 PM 41.0 °F 34.3 °F 21.2 °F 45% 29.85 in 10.0 mi South 11.5 mph 19.6 mph N/A   Scattered Clouds
1:15 PM 42.8 °F 35.8 °F 19.4 °F 39% 29.84 in 10.0 mi SSE 13.8 mph 19.6 mph N/A   Clear
1:35 PM 42.8 °F 35.8 °F 19.4 °F 39% 29.83 in 10.0 mi South 13.8 mph 23.0 mph N/A   Clear
1:55 PM 42.8 °F 35.1 °F 21.2 °F 42% 29.82 in 10.0 mi South 16.1 mph 21.9 mph N/A   Clear
2:15 PM 42.8 °F 36.2 °F 21.2 °F 42% 29.82 in 10.0 mi South 12.7 mph 19.6 mph N/A   Scattered Clouds
2:35 PM 42.8 °F 35.8 °F 23.0 °F 46% 29.82 in 10.0 mi SSW 13.8 mph 17.3 mph N/A   Clear
2:55 PM 42.8 °F 35.8 °F 23.0 °F 46% 29.81 in 10.0 mi South 13.8 mph 19.6 mph N/A   Scattered Clouds
3:15 PM 42.8 °F 36.2 °F 23.0 °F 46% 29.82 in 10.0 mi SSW 12.7 mph - N/A   Scattered Clouds
3:35 PM 42.8 °F 36.2 °F 23.0 °F 46% 29.82 in 10.0 mi SSW 12.7 mph 19.6 mph N/A   Scattered Clouds
3:55 PM 42.8 °F 36.6 °F 23.0 °F 46% 29.82 in 10.0 mi SSW 11.5 mph - N/A   Mostly Cloudy
4:15 PM 41.0 °F 35.2 °F 23.0 °F 49% 29.81 in 10.0 mi SSW 9.2 mph - N/A   Mostly Cloudy
4:35 PM 41.0 °F 35.2 °F 24.8 °F 53% 29.82 in 10.0 mi SW 9.2 mph - N/A   Overcast
4:55 PM 41.0 °F 37.1 °F 26.6 °F 57% 29.81 in 10.0 mi SW 5.8 mph - N/A   Mostly Cloudy
5:15 PM 39.2 °F 33.6 °F 26.6 °F 61% 29.82 in 10.0 mi SSW 8.1 mph - N/A   Scattered Clouds
5:35 PM 37.4 °F 32.1 °F 26.6 °F 65% 29.81 in 10.0 mi South 6.9 mph - N/A   Scattered Clouds
5:55 PM 37.4 °F 32.8 °F 26.6 °F 65% 29.81 in 10.0 mi South 5.8 mph - N/A   Mostly Cloudy
6:15 PM 35.6 °F 31.7 °F 26.6 °F 70% 29.82 in 10.0 mi South 4.6 mph - N/A   Mostly Cloudy
6:35 PM 35.6 °F 32.8 °F 24.8 °F 65% 29.82 in 10.0 mi South 3.5 mph - N/A   Scattered Clouds
6:55 PM 32.0 °F 26.4 °F 26.6 °F 80% 29.82 in 10.0 mi ESE 5.8 mph - N/A   Clear
7:15 PM 32.0 °F 26.4 °F 26.6 °F 80% 29.82 in 10.0 mi ESE 5.8 mph - N/A   Clear
7:35 PM 32.0 °F 25.6 °F 26.6 °F 80% 29.82 in 10.0 mi ESE 6.9 mph - N/A   Clear
7:55 PM 32.0 °F 25.6 °F 26.6 °F 80% 29.81 in 10.0 mi ESE 6.9 mph - N/A   Scattered Clouds
8:15 PM 32.0 °F 25.6 °F 26.6 °F 80% 29.81 in 10.0 mi ESE 6.9 mph - N/A   Scattered Clouds
8:35 PM 32.0 °F 25.6 °F 28.4 °F 87% 29.82 in 10.0 mi South 6.9 mph - N/A   Overcast
8:55 PM 33.8 °F 22.8 °F 30.2 °F 87% 29.84 in 1.5 mi SW 18.4 mph 25.3 mph N/A Snow Light Snow
9:15 PM 32.0 °F 22.1 °F 32.0 °F 100% 29.85 in 0.5 mi SW 13.8 mph 19.6 mph N/A Snow Snow
9:35 PM 32.0 °F 19.2 °F 32.0 °F 100% 29.85 in 2.5 mi WSW 23.0 mph 32.2 mph N/A Snow Light Snow
9:55 PM 32.0 °F 22.5 °F 30.2 °F 93% 29.87 in 10.0 mi WNW 12.7 mph 21.9 mph N/A   Overcast
10:15 PM 30.2 °F 24.3 °F 30.2 °F 100% 29.88 in 10.0 mi NW 5.8 mph - N/A   Overcast
10:35 PM 30.2 °F 23.4 °F 30.2 °F 100% 29.87 in 10.0 mi NW 6.9 mph - N/A   Overcast
10:55 PM 30.2 °F 20.8 °F 28.4 °F 93% 29.88 in 10.0 mi WNW 11.5 mph - N/A   Overcast
11:15 PM 30.2 °F 19.8 °F 28.4 °F 93% 29.89 in 10.0 mi WNW 13.8 mph - N/A   Overcast
11:35 PM 30.2 °F 18.9 °F 26.6 °F 86% 29.90 in 10.0 mi WNW 16.1 mph - N/A Snow Light Snow
11:55 PM 30.2 °F 18.5 °F 24.8 °F 80% 29.91 in 5.0 mi NW 17.3 mph - N/A Snow Light Snow